When you browse on this site, cookies collect data to enhance your experience and personalize the content and advertising you see.
Visit our Privacy Policy to learn more. By continuing to use the site, you agree to this use of cookies and data.
  • Em Portugal
  • Lista de países
  • Para 7 dias
  • Temperatura da água
  • Mapas de satélite
  • Mapa do tempo
  • Widgets de tempo
  • user-avatar
    Iniciar Sessão

    Previsão horária em Engurazovo

    Hoje, 27 Junho, Quinta-feira

    Tempo Temperatura Precipitação Vento Pressão Humidade
    00:00 +15°C° 0.3 mm 2 m/s 747 mmHg 93%
    01:00 +14°C° 1.3 mm 3 m/s 747 mmHg 94%
    02:00 +14°C° 1.3 mm 3 m/s 746 mmHg 95%
    03:00 +14°C° 1.3 mm 4 m/s 746 mmHg 95%
    04:00 +13°C° 0.2 mm 3 m/s 745 mmHg 95%
    05:00 +14°C° 0.2 mm 2 m/s 745 mmHg 95%
    06:00 +14°C° 0.2 mm 1 m/s 745 mmHg 96%
    07:00 +15°C° 0.1 mm 1 m/s 744 mmHg 90%
    08:00 +16°C° 0.1 mm 1 m/s 744 mmHg 85%
    09:00 +18°C° 0.1 mm 1 m/s 744 mmHg 79%
    10:00 +20°C° 0 mm 1 m/s 744 mmHg 72%
    11:00 +21°C° 0 mm 1 m/s 743 mmHg 66%
    12:00 +23°C° 0 mm 1 m/s 743 mmHg 59%
    13:00 +23°C° 0.1 mm 1 m/s 742 mmHg 59%
    14:00 +23°C° 0.1 mm 2 m/s 742 mmHg 59%
    15:00 +23°C° 0.1 mm 2 m/s 742 mmHg 59%
    16:00 +21°C° 0.1 mm 3 m/s 741 mmHg 63%
    17:00 +21°C° 0.1 mm 3 m/s 740 mmHg 68%
    18:00 +20°C° 0.1 mm 3 m/s 739 mmHg 72%
    19:00 +19°C° 0 mm 4 m/s 739 mmHg 76%
    20:00 +18°C° 0 mm 4 m/s 738 mmHg 80%
    21:00 +16°C° 0 mm 5 m/s 738 mmHg 84%
    22:00 +15°C° 1.4 mm 6 m/s 737 mmHg 88%
    23:00 +14°C° 1.4 mm 7 m/s 736 mmHg 92%

    Amanhã, 28 Junho, Sexta-feira

    Tempo Temperatura Precipitação Vento Pressão Humidade
    00:00 +12°C° 1.4 mm 7 m/s 735 mmHg 95%
    01:00 +12°C° 1.8 mm 8 m/s 734 mmHg 96%
    02:00 +11°C° 1.8 mm 8 m/s 733 mmHg 96%
    03:00 +11°C° 1.8 mm 8 m/s 732 mmHg 96%
    04:00 +11°C° 2.4 mm 7 m/s 732 mmHg 97%
    05:00 +11°C° 2.4 mm 6 m/s 731 mmHg 97%
    06:00 +13°C° 2.4 mm 6 m/s 730 mmHg 97%
    07:00 +13°C° 0.4 mm 5 m/s 730 mmHg 97%
    08:00 +13°C° 0.4 mm 4 m/s 730 mmHg 97%
    09:00 +14°C° 0.4 mm 4 m/s 729 mmHg 97%
    10:00 +16°C° 0.2 mm 3 m/s 729 mmHg 93%
    11:00 +18°C° 0.2 mm 3 m/s 729 mmHg 90%
    12:00 +20°C° 0.2 mm 3 m/s 729 mmHg 87%
    13:00 +20°C° 0.4 mm 3 m/s 729 mmHg 83%
    14:00 +20°C° 0.4 mm 4 m/s 729 mmHg 80%
    15:00 +21°C° 0.4 mm 5 m/s 729 mmHg 76%
    16:00 +20°C° 0.3 mm 4 m/s 729 mmHg 78%
    17:00 +20°C° 0.3 mm 4 m/s 729 mmHg 79%
    18:00 +19°C° 0.3 mm 3 m/s 729 mmHg 81%
    19:00 +18°C° 0.2 mm 3 m/s 729 mmHg 86%
    20:00 +16°C° 0.2 mm 3 m/s 730 mmHg 90%
    21:00 +14°C° 0.2 mm 3 m/s 730 mmHg 94%
    22:00 +14°C° 0 mm 2 m/s 730 mmHg 95%
    23:00 +13°C° 0 mm 2 m/s 730 mmHg 95%

    Depois de amanhã, 29 Junho, Sábado

    Tempo Temperatura Precipitação Vento Pressão Humidade
    00:00 +13°C° 0 mm 2 m/s 730 mmHg 96%
    01:00 +13°C° 0 mm 2 m/s 730 mmHg 96%
    02:00 +12°C° 0 mm 2 m/s 729 mmHg 97%
    03:00 +11°C° 0 mm 3 m/s 729 mmHg 97%
    04:00 +11°C° 0.1 mm 3 m/s 729 mmHg 97%
    05:00 +12°C° 0.1 mm 3 m/s 729 mmHg 96%
    06:00 +12°C° 0.1 mm 3 m/s 729 mmHg 95%
    07:00 +12°C° 0.3 mm 3 m/s 729 mmHg 95%
    08:00 +12°C° 0.3 mm 3 m/s 729 mmHg 95%
    09:00 +12°C° 0.3 mm 3 m/s 729 mmHg 95%
    10:00 +13°C° 0.2 mm 3 m/s 730 mmHg 92%
    11:00 +14°C° 0.2 mm 3 m/s 730 mmHg 89%
    12:00 +16°C° 0.2 mm 3 m/s 730 mmHg 86%
    13:00 +16°C° 0.2 mm 3 m/s 731 mmHg 85%
    14:00 +15°C° 0.2 mm 4 m/s 731 mmHg 85%
    15:00 +17°C° 0.2 mm 4 m/s 732 mmHg 84%
    16:00 +15°C° 0.3 mm 4 m/s 732 mmHg 87%
    17:00 +15°C° 0.3 mm 5 m/s 733 mmHg 89%
    18:00 +14°C° 0.3 mm 5 m/s 733 mmHg 91%
    19:00 +13°C° 0.1 mm 5 m/s 734 mmHg 93%
    20:00 +13°C° 0.1 mm 4 m/s 735 mmHg 94%
    21:00 +12°C° 0.1 mm 4 m/s 735 mmHg 95%
    22:00 +12°C° 0.2 mm 4 m/s 736 mmHg 96%
    23:00 +11°C° 0.2 mm 4 m/s 736 mmHg 96%

    30 Junho, Domingo

    Tempo Temperatura Precipitação Vento Pressão Humidade
    00:00 +11°C° 0.2 mm 3 m/s 736 mmHg 97%
    01:00 +11°C° 0.2 mm 3 m/s 737 mmHg 97%
    02:00 +11°C° 0.2 mm 3 m/s 737 mmHg 97%
    03:00 +10°C° 0.2 mm 2 m/s 737 mmHg 97%
    04:00 +10°C° 0.1 mm 2 m/s 738 mmHg 97%
    05:00 +10°C° 0.1 mm 2 m/s 738 mmHg 97%
    06:00 +10°C° 0.1 mm 2 m/s 738 mmHg 97%
    07:00 +12°C° 0.1 mm 2 m/s 739 mmHg 96%
    08:00 +12°C° 0.1 mm 1 m/s 739 mmHg 95%
    09:00 +12°C° 0.1 mm 1 m/s 739 mmHg 93%
    10:00 +13°C° 0.1 mm 1 m/s 740 mmHg 91%
    11:00 +13°C° 0.1 mm 1 m/s 740 mmHg 89%
    12:00 +14°C° 0.1 mm 1 m/s 740 mmHg 86%
    13:00 +14°C° 0.1 mm 2 m/s 740 mmHg 85%
    14:00 +15°C° 0.1 mm 2 m/s 741 mmHg 84%
    15:00 +15°C° 0.1 mm 2 m/s 741 mmHg 82%
    16:00 +14°C° 0.1 mm 3 m/s 741 mmHg 82%
    17:00 +14°C° 0.1 mm 3 m/s 741 mmHg 82%
    18:00 +16°C° 0.1 mm 3 m/s 741 mmHg 82%
    19:00 +13°C° 0 mm 3 m/s 741 mmHg 86%
    20:00 +13°C° 0 mm 2 m/s 742 mmHg 90%
    21:00 +12°C° 0 mm 2 m/s 742 mmHg 94%
    22:00 +10°C° 0 mm 2 m/s 742 mmHg 95%
    23:00 +10°C° 0 mm 2 m/s 742 mmHg 96%

    1 Julho, Segunda-feira

    Tempo Temperatura Precipitação Vento Pressão Humidade
    00:00 +9°C° 0 mm 2 m/s 742 mmHg 96%
    01:00 +9°C° 0 mm 2 m/s 742 mmHg 96%
    02:00 +9°C° 0 mm 2 m/s 742 mmHg 96%
    03:00 +9°C° 0 mm 2 m/s 742 mmHg 96%
    04:00 +10°C° 0 mm 2 m/s 743 mmHg 93%
    05:00 +10°C° 0 mm 2 m/s 743 mmHg 91%
    06:00 +12°C° 0 mm 2 m/s 743 mmHg 88%
    07:00 +14°C° 0 mm 2 m/s 743 mmHg 82%
    08:00 +15°C° 0 mm 2 m/s 743 mmHg 76%
    09:00 +17°C° 0 mm 3 m/s 743 mmHg 70%
    10:00 +18°C° 0.1 mm 3 m/s 743 mmHg 69%
    11:00 +18°C° 0.1 mm 3 m/s 743 mmHg 68%
    12:00 +19°C° 0.1 mm 3 m/s 743 mmHg 67%
    13:00 +19°C° 0.1 mm 3 m/s 743 mmHg 66%
    14:00 +20°C° 0.1 mm 2 m/s 742 mmHg 65%
    15:00 +20°C° 0.1 mm 2 m/s 742 mmHg 64%
    16:00 +20°C° 0.1 mm 2 m/s 742 mmHg 66%
    17:00 +20°C° 0.1 mm 2 m/s 742 mmHg 69%
    18:00 +20°C° 0.1 mm 2 m/s 742 mmHg 72%
    19:00 +18°C° 0 mm 2 m/s 742 mmHg 78%
    20:00 +16°C° 0 mm 1 m/s 742 mmHg 84%
    21:00 +15°C° 0 mm 1 m/s 742 mmHg 90%
    22:00 +14°C° 0 mm 1 m/s 742 mmHg 91%
    23:00 +13°C° 0 mm 1 m/s 742 mmHg 92%

    2 Julho, Terça-feira

    Tempo Temperatura Precipitação Vento Pressão Humidade
    00:00 +13°C° 0 mm 1 m/s 742 mmHg 93%
    01:00 +12°C° 0 mm 1 m/s 741 mmHg 93%
    02:00 +12°C° 0 mm 1 m/s 741 mmHg 93%
    03:00 +12°C° 0 mm 1 m/s 741 mmHg 93%
    04:00 +13°C° 0 mm 2 m/s 741 mmHg 91%
    05:00 +13°C° 0 mm 2 m/s 741 mmHg 88%
    06:00 +14°C° 0 mm 2 m/s 741 mmHg 85%
    07:00 +16°C° 0 mm 2 m/s 740 mmHg 78%
    08:00 +18°C° 0 mm 2 m/s 740 mmHg 71%
    09:00 +20°C° 0 mm 3 m/s 740 mmHg 64%
    10:00 +21°C° 0 mm 3 m/s 740 mmHg 60%
    11:00 +22°C° 0 mm 3 m/s 739 mmHg 56%
    12:00 +23°C° 0 mm 4 m/s 739 mmHg 52%
    13:00 +23°C° 0 mm 4 m/s 739 mmHg 51%
    14:00 +23°C° 0 mm 4 m/s 738 mmHg 50%
    15:00 +23°C° 0 mm 4 m/s 738 mmHg 48%
    16:00 +24°C° 0 mm 3 m/s 737 mmHg 53%
    17:00 +24°C° 0 mm 3 m/s 737 mmHg 58%
    18:00 +23°C° 0 mm 2 m/s 737 mmHg 63%
    19:00 +20°C° 0 mm 2 m/s 737 mmHg 66%
    20:00 +19°C° 0 mm 2 m/s 736 mmHg 69%
    21:00 +17°C° 0 mm 2 m/s 736 mmHg 72%
    22:00 +16°C° 0 mm 2 m/s 736 mmHg 73%
    23:00 +16°C° 0 mm 2 m/s 735 mmHg 75%
    Mostrar mais